Weather History for Laurinburg-Maxton, NC

Change the Weather History Date:

Monday, February 4, 2013

  Actual Average (KLBT) Record (KLBT)
Temperature  
Mean Temperature 38 °F 45 °F  
Max Temperature 50 °F 56 °F 71 °F (2008)
Min Temperature 25 °F 34 °F 25 °F (2013)
Degree Days  
Heating Degree Days 28 20  
Month to date heating degree days 82  
Since 1 July heating degree days 1801  
Cooling Degree Days 0 0  
Month to date cooling degree days 0  
Year to date cooling degree days 1  
Moisture  
Dew Point 26 °F    
Average Humidity 65    
Maximum Humidity 89    
Minimum Humidity 35    
Precipitation  
Precipitation 0.00 in 0.09 in 1.57 in (2011)
Month to date precipitation 0.33  
Year to date precipitation 3.30  
Sea Level Pressure  
Sea Level Pressure 30.09 in    
Wind  
Wind Speed 1 mph (SSW)    
Max Wind Speed 8 mph    
Max Gust Speed -    
Visibility 10 miles    
Events      
T = Trace of Precipitation, MM = Missing Value Source: NWS Daily Summary

Daily Weather History Graph

Daily Weather History Graph

Search for Another Location

Airport:

Trip Planner

Search our weather history database for the weather conditions in past years. The results will help you decide how hot, cold, wet, or windy it might be!

Date:

Astronomy

Feb. 04, 2013 Rise Set
Actual Time 7:13 AM EST 5:49 PM EST
Civil Twilight 6:46 AM EST 6:16 PM EST
Nautical Twilight 6:16 AM EST 6:46 PM EST
Astronomical Twilight 5:47 AM EST 7:15 PM EST
Moon 1:44 AM EST (2/4) 12:15 PM EST (2/4)
Length of Visible Light 11h 29m
Length of Day
10h 36m
Last Quarter, 37% of the Moon is Illuminated
Feb 4
Last Quarter
Feb 10
New
Feb 17
First Quarter
Feb 25
Full
Mar 4
Last Quarter

Hourly Weather History & Observations

Time (EST) Temp. Windchill Dew Point Humidity Pressure Visibility Wind Dir Wind Speed Gust Speed Precip Events Conditions
12:52 AM 28.9 °F - 26.1 °F 89% 30.04 in 10.0 mi Calm Calm - N/A   Clear
1:52 AM 28.9 °F - 25.0 °F 85% 30.04 in 10.0 mi Calm Calm - N/A   Clear
2:52 AM 27.0 °F - 24.1 °F 89% 30.05 in 10.0 mi Calm Calm - N/A   Clear
3:52 AM 26.1 °F - 23.0 °F 88% 30.06 in 10.0 mi Calm Calm - N/A   Clear
6:52 AM 25.0 °F - 21.9 °F 88% 30.10 in 10.0 mi Calm Calm - N/A   Clear
7:52 AM 27.0 °F - 24.1 °F 89% 30.13 in 10.0 mi Calm Calm - N/A   Clear
8:52 AM 32.0 °F - 28.0 °F 85% 30.16 in 10.0 mi Calm Calm - N/A   Clear
9:12 AM 33.8 °F - 26.6 °F 75% 30.15 in 10.0 mi Calm Calm - N/A   Partly Cloudy
9:52 AM 37.0 °F - 30.0 °F 76% 30.17 in 10.0 mi Calm Calm - N/A   Clear
10:52 AM 42.1 °F 39.2 °F 25.0 °F 51% 30.17 in 10.0 mi East 4.6 mph - N/A   Clear
11:52 AM 45.0 °F - 21.9 °F 40% 30.15 in 10.0 mi Calm Calm - N/A   Clear
12:52 PM 46.0 °F - 23.0 °F 40% 30.12 in 10.0 mi Calm Calm - N/A   Clear
1:52 PM 46.9 °F - 24.1 °F 41% 30.11 in 10.0 mi Calm Calm - N/A   Partly Cloudy
2:52 PM 50.0 °F - 23.0 °F 35% 30.09 in 10.0 mi SSW 5.8 mph - N/A   Clear
3:52 PM 48.9 °F - 24.1 °F 38% 30.07 in 10.0 mi SW 4.6 mph - N/A   Clear
4:52 PM 48.0 °F - 27.0 °F 44% 30.07 in 10.0 mi South 8.1 mph - N/A   Clear
6:52 PM 43.0 °F 41.3 °F 30.0 °F 60% 30.07 in 10.0 mi South 3.5 mph - N/A   Clear
7:52 PM 41.0 °F 38.0 °F 30.0 °F 65% 30.07 in 10.0 mi South 4.6 mph - N/A   Clear
8:52 PM 41.0 °F 39.0 °F 28.0 °F 60% 30.06 in 10.0 mi South 3.5 mph - N/A   Clear
9:52 PM 41.0 °F 36.4 °F 28.9 °F 62% 30.07 in 10.0 mi SW 6.9 mph - N/A   Clear
10:52 PM 39.0 °F 34.8 °F 30.0 °F 70% 30.07 in 10.0 mi SSW 5.8 mph - N/A   Clear
11:52 PM 39.9 °F 35.8 °F 30.9 °F 70% 30.06 in 10.0 mi SW 5.8 mph - N/A   Clear